Location: Arbon
(43.0005°N, 0.7472°E)
Time: 11:52:25
(UTC+00:00)

Gblst 52 Del rocket - Pass Details

Date: 22 April 2026
Orbit: 804 x 1364 km, 51.5° (Epoch: 20 May)

Event Time Altitude Azimuth Distance (km) Brightness Sun altitude
Rises 19:32:34 0° 238° (WSW) 3,367 7.8 -8.5°
Reaches altitude 10° 19:34:56 10° 239° (WSW) 2,476 7.1 -8.8°
Maximum altitude 19:40:44 84° 328° (NNW) 931 4.5 -9.8°
Drops below altitude 10° 19:47:22 10° 57° (ENE) 2,815 6.6 -10.9°
Sets 19:50:13 0° 58° (ENE) 3,860 7.3 -11.3°
